When you browse on this site, cookies collect data to enhance your experience and personalize the content and advertising you see.
Visit our Privacy Policy to learn more. By continuing to use the site, you agree to this use of cookies and data.
  • în România
  • Lista ţărilor
  • Pe 7 zile
  • Temperatura apei
  • Meteo pe hartă
  • Widget-uri
  • user-avatar
    Intrare

    Meteo pe oră la Mogilno

    Astăzi, 20 Septembrie, Vineri

    Timp Temperatura Precipitaţii Vânt Presiune Umiditate
    00:00 +8°C° 0 mm 3 m/s 760 mmHg 79%
    01:00 +7°C° 0 mm 4 m/s 760 mmHg 81%
    02:00 +7°C° 0 mm 3 m/s 760 mmHg 82%
    03:00 +7°C° 0 mm 3 m/s 760 mmHg 83%
    04:00 +7°C° 0 mm 3 m/s 760 mmHg 84%
    05:00 +7°C° 0 mm 3 m/s 760 mmHg 82%
    06:00 +7°C° 0 mm 3 m/s 760 mmHg 80%
    07:00 +8°C° 0 mm 3 m/s 760 mmHg 79%
    08:00 +10°C° 0 mm 3 m/s 760 mmHg 70%
    09:00 +11°C° 0 mm 3 m/s 760 mmHg 62%
    10:00 +13°C° 0 mm 3 m/s 760 mmHg 53%
    11:00 +14°C° 0 mm 4 m/s 760 mmHg 51%
    12:00 +14°C° 0 mm 4 m/s 760 mmHg 49%
    13:00 +15°C° 0 mm 4 m/s 759 mmHg 47%
    14:00 +14°C° 0 mm 4 m/s 759 mmHg 52%
    15:00 +14°C° 0 mm 3 m/s 759 mmHg 56%
    16:00 +13°C° 0 mm 3 m/s 759 mmHg 60%
    17:00 +13°C° 0 mm 3 m/s 759 mmHg 63%
    18:00 +12°C° 0 mm 3 m/s 759 mmHg 66%
    19:00 +12°C° 0 mm 3 m/s 759 mmHg 69%
    20:00 +11°C° 0 mm 3 m/s 759 mmHg 72%
    21:00 +11°C° 0 mm 4 m/s 758 mmHg 76%
    22:00 +11°C° 0 mm 4 m/s 758 mmHg 79%
    23:00 +10°C° 0 mm 4 m/s 758 mmHg 83%

    Mâine, 21 Septembrie, Sâmbătă

    Timp Temperatura Precipitaţii Vânt Presiune Umiditate
    00:00 +10°C° 0 mm 4 m/s 758 mmHg 86%
    01:00 +8°C° 0 mm 4 m/s 758 mmHg 89%
    02:00 +8°C° 0 mm 4 m/s 758 mmHg 90%
    03:00 +8°C° 0 mm 4 m/s 758 mmHg 91%
    04:00 +8°C° 0 mm 4 m/s 758 mmHg 93%
    05:00 +8°C° 0 mm 4 m/s 758 mmHg 91%
    06:00 +10°C° 0 mm 4 m/s 758 mmHg 89%
    07:00 +10°C° 0 mm 4 m/s 758 mmHg 87%
    08:00 +12°C° 0 mm 5 m/s 758 mmHg 83%
    09:00 +13°C° 0 mm 5 m/s 758 mmHg 79%
    10:00 +14°C° 0 mm 5 m/s 758 mmHg 75%
    11:00 +15°C° 0 mm 5 m/s 758 mmHg 72%
    12:00 +16°C° 0 mm 5 m/s 757 mmHg 68%
    13:00 +17°C° 0 mm 5 m/s 757 mmHg 64%
    14:00 +19°C° 0 mm 4 m/s 757 mmHg 63%
    15:00 +19°C° 0 mm 4 m/s 757 mmHg 62%
    16:00 +19°C° 0 mm 3 m/s 757 mmHg 61%
    17:00 +17°C° 0 mm 2 m/s 757 mmHg 68%
    18:00 +15°C° 0 mm 2 m/s 756 mmHg 75%
    19:00 +13°C° 0 mm 1 m/s 756 mmHg 82%
    20:00 +13°C° 0 mm 1 m/s 756 mmHg 84%
    21:00 +13°C° 0 mm 1 m/s 756 mmHg 86%
    22:00 +12°C° 0 mm 1 m/s 756 mmHg 87%
    23:00 +12°C° 0 mm 1 m/s 756 mmHg 87%

    Poimâine, 22 Septembrie, Duminică

    Timp Temperatura Precipitaţii Vânt Presiune Umiditate
    00:00 +12°C° 0 mm 1 m/s 756 mmHg 87%
    01:00 +12°C° 0 mm 1 m/s 756 mmHg 87%
    02:00 +12°C° 0 mm 1 m/s 756 mmHg 87%
    03:00 +12°C° 0 mm 1 m/s 756 mmHg 87%
    04:00 +11°C° 0 mm 1 m/s 755 mmHg 86%
    05:00 +12°C° 0 mm 1 m/s 755 mmHg 84%
    06:00 +12°C° 0 mm 1 m/s 755 mmHg 81%
    07:00 +13°C° 0 mm 1 m/s 755 mmHg 78%
    08:00 +15°C° 0 mm 1 m/s 755 mmHg 71%
    09:00 +17°C° 0 mm 2 m/s 755 mmHg 63%
    10:00 +19°C° 0 mm 2 m/s 755 mmHg 55%
    11:00 +20°C° 0 mm 2 m/s 755 mmHg 51%
    12:00 +21°C° 0 mm 2 m/s 754 mmHg 47%
    13:00 +23°C° 0 mm 2 m/s 754 mmHg 43%
    14:00 +23°C° 0 mm 2 m/s 753 mmHg 44%
    15:00 +23°C° 0 mm 2 m/s 753 mmHg 44%
    16:00 +23°C° 0 mm 2 m/s 752 mmHg 44%
    17:00 +20°C° 0 mm 2 m/s 752 mmHg 48%
    18:00 +18°C° 0 mm 2 m/s 752 mmHg 51%
    19:00 +16°C° 0 mm 2 m/s 752 mmHg 54%
    20:00 +16°C° 0 mm 2 m/s 752 mmHg 55%
    21:00 +15°C° 0 mm 2 m/s 752 mmHg 56%
    22:00 +15°C° 0 mm 2 m/s 752 mmHg 57%
    23:00 +13°C° 0 mm 3 m/s 751 mmHg 59%

    23 Septembrie, Luni

    Timp Temperatura Precipitaţii Vânt Presiune Umiditate
    00:00 +13°C° 0 mm 3 m/s 751 mmHg 61%
    01:00 +12°C° 0 mm 3 m/s 751 mmHg 63%
    02:00 +12°C° 0 mm 3 m/s 750 mmHg 65%
    03:00 +12°C° 0 mm 3 m/s 750 mmHg 67%
    04:00 +12°C° 0 mm 3 m/s 750 mmHg 69%
    05:00 +12°C° 0 mm 3 m/s 749 mmHg 69%
    06:00 +12°C° 0 mm 4 m/s 749 mmHg 69%
    07:00 +12°C° 0 mm 4 m/s 749 mmHg 70%
    08:00 +14°C° 0 mm 4 m/s 749 mmHg 64%
    09:00 +15°C° 0 mm 5 m/s 749 mmHg 58%
    10:00 +17°C° 0 mm 5 m/s 749 mmHg 52%
    11:00 +19°C° 0 mm 5 m/s 748 mmHg 50%
    12:00 +20°C° 0 mm 5 m/s 748 mmHg 47%
    13:00 +21°C° 0 mm 5 m/s 748 mmHg 45%
    14:00 +21°C° 0 mm 4 m/s 748 mmHg 47%
    15:00 +20°C° 0 mm 3 m/s 747 mmHg 49%
    16:00 +20°C° 0 mm 3 m/s 747 mmHg 51%
    17:00 +19°C° 0 mm 3 m/s 747 mmHg 55%
    18:00 +17°C° 0 mm 2 m/s 748 mmHg 58%
    19:00 +16°C° 0 mm 2 m/s 748 mmHg 62%
    20:00 +15°C° 0 mm 2 m/s 748 mmHg 66%
    21:00 +15°C° 0 mm 2 m/s 748 mmHg 69%
    22:00 +14°C° 0 mm 2 m/s 748 mmHg 73%
    23:00 +14°C° 0 mm 2 m/s 748 mmHg 79%

    24 Septembrie, Marţi

    Timp Temperatura Precipitaţii Vânt Presiune Umiditate
    00:00 +13°C° 0 mm 2 m/s 748 mmHg 84%
    01:00 +12°C° 0 mm 2 m/s 749 mmHg 90%
    02:00 +12°C° 0 mm 2 m/s 749 mmHg 92%
    03:00 +12°C° 0 mm 2 m/s 749 mmHg 93%
    04:00 +10°C° 0 mm 2 m/s 749 mmHg 95%
    05:00 +12°C° 0 mm 2 m/s 749 mmHg 93%
    06:00 +12°C° 0 mm 2 m/s 750 mmHg 92%
    07:00 +12°C° 0 mm 2 m/s 750 mmHg 90%
    08:00 +14°C° 0 mm 2 m/s 750 mmHg 82%
    09:00 +16°C° 0 mm 2 m/s 751 mmHg 75%
    10:00 +18°C° 0 mm 2 m/s 751 mmHg 67%
    11:00 +19°C° 0 mm 2 m/s 751 mmHg 62%
    12:00 +20°C° 0 mm 2 m/s 751 mmHg 58%
    13:00 +21°C° 0 mm 2 m/s 751 mmHg 54%
    14:00 +21°C° 0 mm 2 m/s 750 mmHg 53%
    15:00 +22°C° 0 mm 1 m/s 750 mmHg 53%
    16:00 +22°C° 0 mm 1 m/s 750 mmHg 52%
    17:00 +21°C° 0 mm 1 m/s 750 mmHg 56%
    18:00 +20°C° 0 mm 1 m/s 750 mmHg 60%
    19:00 +18°C° 0 mm 1 m/s 750 mmHg 64%
    20:00 +18°C° 0 mm 1 m/s 750 mmHg 65%
    21:00 +18°C° 0 mm 1 m/s 750 mmHg 66%
    22:00 +18°C° 0 mm 1 m/s 750 mmHg 67%
    23:00 +17°C° 0 mm 2 m/s 750 mmHg 69%

    25 Septembrie, Miercuri

    Timp Temperatura Precipitaţii Vânt Presiune Umiditate
    00:00 +16°C° 0 mm 2 m/s 750 mmHg 70%
    01:00 +16°C° 0 mm 2 m/s 750 mmHg 72%
    02:00 +16°C° 0 mm 2 m/s 749 mmHg 73%
    03:00 +16°C° 0 mm 2 m/s 749 mmHg 75%
    04:00 +15°C° 0 mm 2 m/s 749 mmHg 76%
    05:00 +15°C° 0 mm 2 m/s 749 mmHg 77%
    06:00 +15°C° 0 mm 2 m/s 749 mmHg 78%
    07:00 +15°C° 0 mm 2 m/s 748 mmHg 79%
    08:00 +16°C° 0.1 mm 2 m/s 748 mmHg 77%
    09:00 +17°C° 0.1 mm 2 m/s 748 mmHg 74%
    10:00 +18°C° 0.1 mm 3 m/s 748 mmHg 71%
    11:00 +18°C° 0.2 mm 3 m/s 748 mmHg 69%
    12:00 +19°C° 0.2 mm 3 m/s 747 mmHg 66%
    13:00 +20°C° 0.2 mm 3 m/s 747 mmHg 64%
    14:00 +19°C° 0.3 mm 3 m/s 747 mmHg 67%
    15:00 +19°C° 0.3 mm 2 m/s 746 mmHg 69%
    16:00 +19°C° 0.3 mm 2 m/s 746 mmHg 72%
    17:00 +18°C° 0.2 mm 2 m/s 746 mmHg 75%
    18:00 +18°C° 0.2 mm 1 m/s 746 mmHg 77%
    19:00 +18°C° 0.2 mm 1 m/s 745 mmHg 80%
    20:00 +16°C° 0.1 mm 1 m/s 745 mmHg 81%
    21:00 +16°C° 0.1 mm 1 m/s 745 mmHg 83%
    22:00 +16°C° 0.1 mm 2 m/s 745 mmHg 85%
    23:00 +15°C° 0.1 mm 2 m/s 745 mmHg 86%
    Arată mai mult